�N����,����,�~����,�C��,���x,�C��,����,���ϕ���,�ő�u�ԕ���,�ő厞����,���˗�,�I�_���x,�n�����x,�ő啗���N��,DTYPE
"20/08/21","00:10",0.0,27.9,79.2,1005.5,338.6,1.1,2.4,351.9,0.00,24.0,29.8,"00:09:12",1
"20/08/21","00:20",0.0,27.7,80.0,1005.7,346.0,1.2,2.1,353.0,0.00,24.0,29.2,"00:15:44",1
"20/08/21","00:30",0.0,27.6,80.7,1006.0,340.7,1.2,2.6,334.0,0.00,24.0,29.2,"00:28:08",1
"20/08/21","00:40",0.0,27.7,80.6,1006.2,336.4,1.7,3.3,325.3,0.00,24.1,29.4,"00:35:28",1
"20/08/21","00:50",0.0,27.8,80.4,1005.7,342.8,1.0,2.4,340.2,0.00,24.2,29.3,"00:41:12",1
"20/08/21","01:00",0.0,27.5,80.8,1006.0,343.3,1.3,2.4,350.1,0.00,23.9,29.1,"00:54:48",1
"20/08/21","01:10",0.0,27.4,81.4,1006.0,337.6,1.6,2.8,344.0,0.00,24.0,29.1,"01:02:00",1
"20/08/21","01:20",0.0,27.5,81.5,1005.7,327.4,2.0,3.5,340.4,0.00,24.1,29.0,"01:15:04",1
"20/08/21","01:30",0.0,27.4,81.7,1006.0,325.8,1.7,3.1,341.5,0.00,24.0,28.9,"01:26:00",1
"20/08/21","01:40",0.0,27.4,81.8,1006.0,301.8,1.1,2.1,318.4,0.00,24.1,29.0,"01:31:12",1
"20/08/21","01:50",0.0,27.3,82.0,1006.0,326.2,1.5,2.2,335.8,0.00,24.0,28.7,"01:40:24",1
"20/08/21","02:00",0.0,27.2,82.4,1006.0,333.9,1.6,2.7,341.0,0.00,24.0,28.9,"01:53:36",1
"20/08/21","02:10",0.0,27.1,82.7,1006.4,325.2,1.5,3.4,341.4,0.00,23.9,28.7,"02:09:28",1
"20/08/21","02:20",0.0,27.1,82.7,1006.0,334.8,1.6,3.2,349.4,0.00,23.9,28.7,"02:14:00",1
"20/08/21","02:30",0.0,27.1,82.9,1006.2,324.9,1.8,3.2,345.2,0.00,24.0,28.7,"02:23:12",1
"20/08/21","02:40",0.0,27.0,83.0,1006.4,314.9,1.5,3.2,341.2,0.00,23.9,28.5,"02:35:52",1
"20/08/21","02:50",0.0,27.0,83.2,1006.4,334.0,1.5,2.9,338.8,0.00,23.9,28.5,"02:47:52",1
"20/08/21","03:00",0.0,27.0,83.3,1006.2,331.7,1.5,2.8,347.6,0.00,24.0,28.5,"02:54:00",1
"20/08/21","03:10",0.0,26.8,83.6,1006.9,341.5,1.6,3.2,356.5,0.00,23.8,28.3,"03:01:20",1
"20/08/21","03:20",0.0,26.8,83.8,1007.1,333.9,1.7,3.4,346.1,0.00,23.9,28.2,"03:14:08",1
"20/08/21","03:30",0.0,26.8,83.8,1006.9,336.5,1.7,3.5,327.4,0.00,23.9,28.3,"03:21:20",1
"20/08/21","03:40",0.0,26.7,83.9,1007.1,339.6,1.5,3.2,347.3,0.00,23.8,28.4,"03:34:16",1
"20/08/21","03:50",0.0,26.6,84.1,1007.1,340.0,1.3,2.7,340.3,0.00,23.7,28.2,"03:41:28",1
"20/08/21","04:00",0.0,26.5,84.5,1006.9,336.7,1.3,2.7,328.7,0.00,23.7,28.2,"03:52:40",1
"20/08/21","04:10",0.0,26.4,84.8,1007.1,341.0,1.6,3.5,341.6,0.00,23.7,28.2,"04:06:00",1
"20/08/21","04:20",0.0,26.4,85.1,1007.1,327.7,1.6,3.2,350.3,0.00,23.7,28.1,"04:15:28",1
"20/08/21","04:30",0.0,26.4,85.2,1007.4,320.2,1.5,2.5,336.0,0.00,23.8,28.1,"04:26:16",1
"20/08/21","04:40",0.0,26.3,85.4,1006.9,302.8,1.2,3.2,342.8,0.00,23.7,28.0,"04:35:20",1
"20/08/21","04:50",0.0,26.1,85.5,1007.6,287.2,0.6,1.1,297.8,0.00,23.5,27.9,"04:42:00",1
"20/08/21","05:00",0.0,26.1,85.8,1007.4,303.1,1.1,2.2,334.0,0.00,23.6,28.1,"04:52:32",1
"20/08/21","05:10",0.0,26.0,86.1,1007.1,301.8,0.7,1.8,314.9,0.00,23.5,27.7,"05:00:32",1
"20/08/21","05:20",0.0,25.9,86.4,1007.1,289.9,0.8,1.9,327.4,0.00,23.5,27.8,"05:17:52",1
"20/08/21","05:30",0.0,25.9,86.7,1007.1,292.7,1.0,2.4,341.2,0.00,23.6,27.9,"05:29:12",1
"20/08/21","05:40",0.0,26.0,86.9,1007.6,308.3,1.2,2.5,311.3,0.00,23.7,27.7,"05:35:12",1
"20/08/21","05:50",0.0,25.9,87.1,1007.4,290.0,0.7,1.6,305.4,0.00,23.6,27.7,"05:40:24",1
"20/08/21","06:00",0.0,26.0,87.3,1007.6,304.5,1.1,1.9,305.1,0.00,23.8,27.7,"05:55:52",1
"20/08/21","06:10",0.0,26.3,87.3,1007.4,319.3,1.6,3.1,344.3,0.01,24.1,27.8,"06:03:12",1
"20/08/21","06:20",0.0,26.5,86.9,1007.1,322.3,1.7,3.2,337.8,0.02,24.2,27.7,"06:14:48",1
"20/08/21","06:30",0.0,26.8,86.5,1007.4,332.9,1.3,2.8,341.2,0.03,24.4,27.9,"06:23:28",1
"20/08/21","06:40",0.0,27.1,85.8,1007.8,337.6,1.2,2.4,350.2,0.04,24.6,27.7,"06:37:44",1
"20/08/21","06:50",0.0,27.4,84.9,1007.6,345.5,1.6,3.3,336.2,0.05,24.7,27.8,"06:42:40",1
"20/08/21","07:00",0.0,27.7,83.8,1007.6,340.4,1.6,2.9,331.5,0.07,24.7,27.8,"06:51:12",1
"20/08/21","07:10",0.0,28.2,82.6,1007.4,341.2,1.5,3.5,345.6,0.09,25.0,27.7,"07:01:20",1
"20/08/21","07:20",0.0,28.7,81.1,1007.1,332.9,1.0,2.1,357.8,0.11,25.2,27.9,"07:12:00",1
"20/08/21","07:30",0.0,29.4,79.2,1006.4,303.9,0.7,1.8,338.4,0.13,25.5,28.1,"07:27:52",1
"20/08/21","07:40",0.0,30.0,77.4,1007.1,306.2,0.7,2.2,329.4,0.15,25.7,28.5,"07:35:04",1
"20/08/21","07:50",0.0,30.7,75.0,1007.6,295.4,0.3,1.3,349.7,0.17,25.8,28.5,"07:44:16",1
"20/08/21","08:00",0.0,31.2,72.5,1008.3,102.4,0.6,2.0,350.3,0.19,25.7,28.6,"07:52:32",1
"20/08/21","08:10",0.0,31.7,69.7,1008.1,64.5,0.6,1.2,119.3,0.22,25.5,28.7,"08:09:12",1
"20/08/21","08:20",0.0,32.4,68.2,1008.6,51.5,0.6,1.7,16.2,0.24,25.8,29.0,"08:13:44",1
"20/08/21","08:30",0.0,32.6,65.7,1008.8,31.8,0.7,1.7,352.0,0.27,25.4,29.1,"08:27:36",1
"20/08/21","08:40",0.0,32.6,65.3,1009.3,18.4,1.0,2.2,350.2,0.29,25.3,29.4,"08:34:00",1
"20/08/21","08:50",0.0,32.8,64.6,1009.3,36.6,0.7,1.7,36.5,0.30,25.3,29.5,"08:46:48",1
"20/08/21","09:00",0.0,33.2,63.3,1009.5,49.7,0.8,2.2,7.7,0.33,25.3,29.7,"08:58:48",1
"20/08/21","09:10",0.0,33.7,62.3,1009.5,17.3,0.6,2.0,350.2,0.35,25.5,30.2,"09:06:32",1
"20/08/21","09:20",0.0,33.9,61.3,1009.7,218.9,0.7,2.7,220.3,0.37,25.4,30.4,"09:19:36",1
"20/08/21","09:30",0.0,34.2,60.7,1010.0,159.3,1.0,2.1,205.2,0.39,25.6,30.7,"09:28:00",1
"20/08/21","09:40",0.0,34.4,60.7,1010.0,156.0,0.8,2.7,103.1,0.40,25.7,30.9,"09:30:40",1
"20/08/21","09:50",0.0,35.0,58.2,1010.0,74.8,0.7,2.2,10.2,0.41,25.6,31.0,"09:42:24",1
"20/08/21","10:00",0.0,35.0,56.8,1010.2,82.9,0.7,2.6,210.7,0.42,25.2,31.4,"09:54:16",1
"20/08/21","10:10",0.0,35.3,57.4,1010.2,128.0,0.7,2.5,348.6,0.45,25.6,31.5,"10:03:04",1
"20/08/21","10:20",0.0,35.3,55.5,1010.2,164.3,1.2,3.3,216.8,0.47,25.1,31.9,"10:18:24",1
"20/08/21","10:30",0.0,35.5,54.9,1010.4,169.6,1.1,2.7,211.7,0.49,25.1,32.0,"10:28:00",1
"20/08/21","10:40",0.0,35.8,53.5,1010.0,182.0,1.2,2.7,219.9,0.50,24.9,32.4,"10:37:52",1
"20/08/21","10:50",0.0,36.5,53.4,1010.2,183.5,0.8,2.5,223.5,0.50,25.5,32.8,"10:41:04",1
"20/08/21","11:00",0.0,36.3,51.7,1010.0,216.2,1.3,2.7,7.4,0.51,24.8,33.1,"10:50:48",1
"20/08/21","11:10",0.0,36.5,51.4,1010.4,178.8,1.2,3.4,208.3,0.52,24.9,33.2,"11:08:56",1
"20/08/21","11:20",0.0,36.9,50.5,1009.7,121.5,1.2,2.9,217.2,0.54,25.0,33.3,"11:11:04",1
"20/08/21","11:30",0.0,36.6,49.6,1010.0,147.2,1.8,4.2,117.5,0.54,24.4,33.5,"11:29:44",1
"20/08/21","11:40",0.0,36.7,48.5,1009.5,135.7,1.5,3.7,215.9,0.55,24.1,34.1,"11:32:16",1
"20/08/21","11:50",0.0,36.9,46.7,1009.7,189.9,1.6,3.9,214.9,0.56,23.7,34.1,"11:46:40",1
"20/08/21","12:00",0.0,37.4,43.7,1009.7,205.4,1.6,3.4,195.5,0.57,23.0,34.4,"11:58:56",1
"20/08/21","12:10",0.0,37.8,44.4,1009.3,194.7,2.0,3.6,230.0,0.57,23.6,34.7,"12:06:48",1
"20/08/21","12:20",0.0,38.1,43.0,1009.5,202.1,1.0,2.6,190.3,0.57,23.4,35.0,"12:10:16",1
"20/08/21","12:30",0.0,38.3,42.4,1009.3,49.7,0.8,2.2,53.9,0.56,23.3,35.2,"12:22:32",1
"20/08/21","12:40",0.0,38.5,42.5,1009.5,38.2,1.0,2.4,356.6,0.56,23.5,35.3,"12:30:56",1
"20/08/21","12:50",0.0,38.4,42.9,1009.5,153.4,1.5,2.8,141.1,0.57,23.6,35.5,"12:45:52",1
"20/08/21","13:00",0.0,39.0,41.9,1009.5,178.8,1.3,2.8,115.1,0.55,23.7,36.0,"12:53:04",1
"20/08/21","13:10",0.0,38.9,41.9,1009.5,222.8,1.5,4.2,203.9,0.51,23.7,36.0,"13:08:08",1
"20/08/21","13:20",0.0,38.9,43.3,1009.0,224.7,1.8,4.2,215.7,0.57,24.2,35.9,"13:10:56",1
"20/08/21","13:30",0.0,38.0,44.3,1009.0,193.0,1.2,2.8,246.4,0.20,23.8,35.9,"13:26:32",1
"20/08/21","13:40",0.0,38.4,43.5,1008.8,254.1,1.0,2.9,230.2,0.47,23.8,35.9,"13:37:12",1
"20/08/21","13:50",0.0,38.7,42.5,1008.8,223.4,1.3,4.0,206.3,0.44,23.7,36.1,"13:42:24",1
"20/08/21","14:00",0.0,38.3,42.8,1008.8,287.0,1.0,2.5,342.5,0.33,23.5,36.0,"13:55:28",1
"20/08/21","14:10",0.0,38.5,42.7,1008.6,300.3,1.5,3.5,349.0,0.48,23.6,35.8,"14:02:00",1
"20/08/21","14:20",0.0,38.0,43.2,1008.3,321.9,1.5,3.7,345.4,0.33,23.4,36.1,"14:19:52",1
"20/08/21","14:30",0.0,38.7,42.9,1007.8,318.0,1.0,2.7,342.4,0.48,23.9,36.1,"14:22:32",1
"20/08/21","14:40",0.0,39.0,40.8,1008.3,222.1,1.6,4.3,220.4,0.48,23.3,36.0,"14:38:40",1
"20/08/21","14:50",0.0,39.2,41.6,1007.8,208.1,1.6,3.9,223.1,0.40,23.8,36.1,"14:41:28",1
"20/08/21","15:00",0.0,38.1,43.3,1007.8,316.6,1.5,3.9,232.5,0.31,23.5,36.1,"14:50:16",1
"20/08/21","15:10",0.0,38.2,44.6,1008.3,334.4,1.1,2.6,327.9,0.26,24.1,35.9,"15:05:04",1
"20/08/21","15:20",0.0,34.9,48.0,1007.8,351.3,3.1,6.6,62.0,0.25,22.3,35.7,"15:12:32",1
"20/08/21","15:30",0.0,34.4,46.6,1007.4,358.4,2.6,6.6,320.4,0.37,21.4,35.7,"15:26:40",1
"20/08/21","15:40",0.0,33.8,49.5,1006.9,353.7,2.5,5.8,351.6,0.33,21.8,35.2,"15:39:52",1
"20/08/21","15:50",0.0,33.6,49.5,1006.0,352.6,2.2,4.3,299.1,0.31,21.6,35.2,"15:40:24",1
"20/08/21","16:00",0.0,34.1,47.7,1006.2,346.8,2.1,4.7,349.0,0.27,21.5,35.1,"15:58:08",1
"20/08/21","16:10",0.0,33.6,50.6,1005.7,349.3,2.5,6.5,342.3,0.20,22.0,34.9,"16:04:32",1
"20/08/21","16:20",0.0,33.2,56.8,1005.7,4.7,2.3,4.8,346.2,0.12,23.5,34.6,"16:19:52",1
"20/08/21","16:30",0.0,33.3,58.7,1005.2,357.2,3.1,6.5,357.7,0.16,24.2,34.3,"16:24:08",1
"20/08/21","16:40",0.0,33.6,59.5,1005.0,353.9,3.0,6.6,347.6,0.17,24.7,34.3,"16:37:28",1
"20/08/21","16:50",0.0,33.5,59.8,1005.5,354.4,2.7,7.2,348.0,0.14,24.6,34.0,"16:40:48",1
"20/08/21","17:00",0.0,33.2,60.6,1005.0,350.8,3.1,7.1,346.4,0.12,24.6,33.9,"16:58:24",1
"20/08/21","17:10",0.0,33.0,61.8,1005.2,350.2,2.8,5.1,335.8,0.10,24.7,33.6,"17:06:00",1
"20/08/21","17:20",0.0,32.9,62.2,1005.5,352.7,2.5,5.9,336.9,0.08,24.7,33.5,"17:15:44",1
"20/08/21","17:30",0.0,32.6,62.8,1005.5,349.8,2.5,6.4,1.6,0.05,24.6,33.3,"17:25:20",1
"20/08/21","17:40",0.0,32.0,64.3,1005.0,346.0,2.8,5.5,335.0,0.00,24.5,33.3,"17:34:16",1
"20/08/21","17:50",0.0,31.4,65.9,1004.5,349.2,2.8,5.5,357.5,0.00,24.3,33.1,"17:47:12",1
"20/08/21","18:00",0.0,31.1,67.3,1004.8,358.5,2.0,4.4,342.5,0.00,24.4,32.9,"17:50:48",1
"20/08/21","18:10",0.0,30.9,68.6,1005.0,33.8,1.0,4.0,351.0,0.00,24.5,32.5,"18:02:40",1
"20/08/21","18:20",0.0,30.7,69.4,1005.5,356.4,1.7,4.5,352.7,0.00,24.5,32.3,"18:11:36",1
"20/08/21","18:30",0.0,30.5,70.1,1005.0,318.2,1.0,4.0,330.4,0.00,24.5,32.5,"18:22:08",1
"20/08/21","18:40",0.0,30.2,70.8,1005.0,316.8,1.2,3.2,328.6,0.00,24.3,32.1,"18:34:48",1
"20/08/21","18:50",0.0,29.8,71.9,1004.8,343.9,2.6,5.6,336.7,0.00,24.2,32.1,"18:45:12",1
"20/08/21","19:00",0.0,29.5,72.8,1004.8,356.1,2.1,4.7,336.8,0.00,24.1,31.7,"18:56:16",1
"20/08/21","19:10",0.0,29.4,72.0,1005.0,0.5,2.1,3.9,17.6,0.00,23.9,31.6,"19:03:04",1
"20/08/21","19:20",0.0,29.4,71.7,1004.8,341.9,1.8,4.5,352.1,0.00,23.8,31.6,"19:13:52",1
"20/08/21","19:30",0.0,29.2,72.3,1005.5,350.0,2.1,4.2,1.4,0.00,23.7,31.6,"19:28:00",1
"20/08/21","19:40",0.0,29.1,73.2,1005.2,333.9,1.7,3.7,341.6,0.00,23.8,31.4,"19:31:44",1
"20/08/21","19:50",0.0,28.8,74.2,1005.5,343.9,1.7,5.1,355.2,0.00,23.8,31.1,"19:49:20",1
"20/08/21","20:00",0.0,28.7,74.6,1006.0,333.8,2.5,5.8,318.2,0.00,23.8,31.2,"19:50:32",1
"20/08/21","20:10",0.0,28.9,73.9,1005.7,335.4,2.5,5.4,329.0,0.00,23.8,30.7,"20:02:40",1
"20/08/21","20:20",0.0,28.8,74.0,1006.0,340.3,1.6,2.8,324.4,0.00,23.7,30.6,"20:18:00",1
"20/08/21","20:30",0.0,28.6,74.4,1006.4,337.2,2.1,5.5,329.2,0.00,23.6,30.6,"20:27:52",1
"20/08/21","20:40",0.0,28.7,74.3,1006.2,321.6,1.7,4.2,339.2,0.00,23.7,30.6,"20:31:20",1
"20/08/21","20:50",0.0,28.5,74.7,1006.0,333.7,2.0,4.0,348.1,0.00,23.6,30.4,"20:43:20",1
"20/08/21","21:00",0.0,28.3,75.2,1006.4,330.0,2.2,4.0,347.1,0.00,23.5,30.5,"20:50:32",1
"20/08/21","21:10",0.0,28.4,75.4,1006.0,326.7,2.0,4.2,336.8,0.00,23.7,30.3,"21:00:40",1
"20/08/21","21:20",0.0,28.3,75.5,1006.2,318.4,2.1,3.7,303.3,0.00,23.6,30.3,"21:13:36",1
"20/08/21","21:30",0.0,28.3,76.0,1006.2,337.2,1.7,4.8,343.4,0.00,23.7,30.1,"21:20:40",1
"20/08/21","21:40",0.0,28.1,76.6,1006.7,336.8,1.3,2.8,340.1,0.00,23.6,30.1,"21:37:04",1
"20/08/21","21:50",0.0,28.0,77.0,1006.4,330.3,2.0,3.6,323.1,0.00,23.6,29.7,"21:48:24",1
"20/08/21","22:00",0.0,27.9,77.3,1006.2,330.4,1.7,4.1,336.4,0.00,23.6,29.9,"21:50:08",1
"20/08/21","22:10",0.0,27.7,77.8,1006.7,341.3,1.7,3.7,343.5,0.00,23.5,29.6,"22:06:00",1
"20/08/21","22:20",0.0,27.6,78.2,1006.7,339.6,1.6,2.9,8.1,0.00,23.5,29.6,"22:10:48",1
"20/08/21","22:30",0.0,27.5,78.4,1006.7,322.6,1.5,3.2,351.9,0.00,23.4,29.5,"22:23:44",1
"20/08/21","22:40",0.0,27.5,78.4,1006.4,317.6,1.1,2.5,350.8,0.00,23.4,29.5,"22:31:04",1
"20/08/21","22:50",0.0,27.4,78.6,1006.7,309.6,0.8,2.4,343.6,0.00,23.4,29.6,"22:44:08",1
"20/08/21","23:00",0.0,27.4,78.8,1006.7,333.1,1.5,2.7,305.4,0.00,23.4,29.3,"22:50:56",1
"20/08/21","23:10",0.0,27.3,78.9,1006.7,306.7,1.0,2.6,335.0,0.00,23.4,29.2,"23:00:40",1
"20/08/21","23:20",0.0,27.2,79.3,1006.7,254.4,1.0,2.1,236.8,0.00,23.3,29.1,"23:16:16",1
"20/08/21","23:30",0.0,27.1,79.7,1006.9,246.8,0.8,2.5,232.7,0.00,23.3,29.2,"23:28:16",1
"20/08/21","23:40",0.0,27.0,80.1,1006.4,248.4,0.8,2.0,235.8,0.00,23.3,29.2,"23:34:00",1
"20/08/21","23:50",0.0,26.8,80.2,1006.9,272.6,0.5,1.3,259.0,0.00,23.1,29.0,"23:41:20",1
"20/08/21","24:00",0.0,26.7,81.0,1006.9,343.1,0.8,1.4,334.5,0.00,23.2,28.8,"23:59:44",1
